Terminal Aerodrome Forecast
Issued by NWS

Current Version | Previous Version | Graphics & Text | Print | Product List | Glossary On
Versions: 1 2 3 4 5 6 7 8 9 10 11 12 13 14 15 16 17 18 19 20 21 22 23
000
FTUS41 KRLX 271400 AAA
TAFCKB
TAF AMD
KCKB 271423Z 2714/2812 00000KT P6SM FEW250
     FM272100 07005KT P6SM FEW050
     FM272200 07004KT P6SM SCT200
     FM280800 00000KT 6SM BR SCT250
     FM281000 00000KT 4SM BR SCT200=

USA.gov is the U.S. government's official web portal to all federal, state and local government web resources and services.